User: anonymous   Login
Location: Voyageurs National Park
(48.5020°N, 92.9292°W)
Time: 03:15:08
(UTC-05:00)
Language:

Terra - Orbit

View from above orbital plane
View from above orbital plane
View from above satellite
View from above satellite

Ground track
Ground track

The orbit data is extracted from the following two-line orbital elements,

1 25994U 99068A   17081.74988951 -.00000066 +00000-0 -45735-5 0  9992
2 25994 098.2134 158.0019 0001026 068.7715 291.3585 14.57110381918085
Epoch (UTC): 22 March 2017 17:59:50
Eccentricity: 0.0001026
inclination: 98.2134°
perigee height: 702 km
apogee height: 703 km
right ascension of ascending node: 158.0019°
argument of perigee: 68.7715°
revolutions per day: 14.57110381
mean anomaly at epoch: 291.3585°
orbit number at epoch: 91808

The dashed part of the orbit path shows where the satellite is in the earth's shadow,  

DLR